This demonstration page uses our WeatherBlox Daily Observations layout. Learn more.

Left ArrowRight Arrow

38.80484, -77.04692

Hourly Observations for August 20, 2021

Temp ( °F °C ) Dew Point ( °F °C ) Humidity (%) Winds ( mph kmh ) Pressure ( in mb ) Visibility ( mi km ) Precip ( " mm )
12:52 am 00:52 Cloudy 77 25 72 22.2 85 85 SSW 3 6 29.96 1014 10 16 N/A
1:52 am 01:52 Cloudy 78 25.6 72 22.2 82 82 N N/A 29.94 1014 10 16 N/A
2:52 am 02:52 Cloudy with Light Rain 77 25 72 22.2 85 85 NNW 6 9 29.93 1013 10 16 0.01 0.25
3:52 am 03:52 Cloudy with Light Rain 77 25 71 21.7 82 82 NNW 10 17 29.92 1013 10 16 0.00 0.00
4:46 am 04:46 Cloudy with Heavy Rain 75 24 72 22 89 89 W 8 13 29.93 1013 4 6 0.17 4.32
4:52 am 04:52 Cloudy with Heavy Rain 75 23.9 72 22.2 90 90 WNW 6 9 29.93 1014 3 5 0.24 6.10
5:52 am 05:52 Cloudy with Light Rain 74 23.3 69 20.6 85 85 N 5 7 29.92 1013 10 16 0.21 5.33
6:16 am 06:16 Cloudy with Light Rain 74 23.3 70 21.1 88 88 N N/A 29.93 1013 6 10 0.02 0.51
6:52 am 06:52 Cloudy with Light Rain 75 23.9 71 21.7 88 88 E 3 6 29.92 1013 4 6 0.05 1.27
6:58 am 06:58 Cloudy with Light Rain 75 23.9 71 21.7 88 88 E 5 7 29.93 1013 4 6 0.00 0.00
7:24 am 07:24 Cloudy with Heavy Rain 74 23.3 70 21.1 88 88 N 3 6 29.93 1013 2 2 0.02 0.51
7:26 am 07:26 Cloudy with Rain 74 23.3 70 21.1 88 88 N 7 11 29.93 1013 1 1 0.02 0.51
7:35 am 07:35 Cloudy with Heavy Rain 74 23.3 70 21.1 88 88 NE 10 17 29.93 1013 1 2 0.35 8.89
7:41 am 07:41 Cloudy with Light Rain 74 23.3 70 21.1 88 88 NE 10 17 29.93 1013 3 4 0.38 9.65
7:52 am 07:52 Cloudy with Heavy Rain 74 23.3 71 21.7 91 91 N 12 19 29.94 1014 1 2 0.41 10.41
8:11 am 08:11 Cloudy with Heavy Rain 73 22.8 71 21.7 94 94 N 8 13 29.94 1014 1 2 0.34 8.64
8:42 am 08:42 Cloudy with Heavy Rain 72 22.2 70 21.1 94 94 ENE 6 9 29.95 1014 1 2 0.81 20.57
8:52 am 08:52 Cloudy with Heavy Rain 72 22.2 70 21.1 94 94 NNE 9 15 29.94 1014 2 2 0.99 25.15
9:15 am 09:15 Cloudy with Rain 73 22.8 71 21.7 94 94 ENE 8 13 29.95 1014 3 4 0.22 5.59
9:24 am 09:24 Cloudy with Rain 73 22.8 70 21.1 90 90 NE 10 17 29.95 1014 4 6 0.24 6.10
9:52 am 09:52 Cloudy with Rain 71 21.7 68 20 90 90 NE 9 15 29.95 1014 4 6 0.31 7.87
10:08 am 10:08 Cloudy with Light Rain 72 22.2 69 20.6 91 91 NNE 7 11 29.95 1014 7 11 0.03 0.76
10:52 am 10:52 Cloudy with Light Rain 73 22.8 69 20.6 87 87 NNE 13 20 29.96 1014 10 16 0.06 1.52
11:52 am 11:52 Cloudy 75 23.9 69 20.6 82 82 NE 8 13 29.96 1015 10 16 0.00 0.00
12:52 pm 12:52 Cloudy 78 25.6 69 20.6 74 74 N 6 9 29.96 1015 10 16 N/A
1:16 pm 13:16 Cloudy 78 25.6 69 20.6 74 74 NE 8 13 29.96 1014 10 16 N/A
1:52 pm 13:52 Mostly Cloudy 80 26.7 69 20.6 69 69 NNE 8 13 29.96 1014 10 16 N/A
2:52 pm 14:52 Mostly Cloudy 81 27.2 68 20 65 65 ENE 14 22 29.93 1014 10 16 N/A
3:39 pm 15:39 Mostly Cloudy 83 28.3 68 20 61 61 ENE 7 11 29.91 1013 10 16 N/A
3:52 pm 15:52 Mostly Cloudy 83 28.3 67 19.4 59 59 ENE 7 11 29.91 1013 10 16 N/A
4:52 pm 16:52 Mostly Cloudy 84 28.9 67 19.4 57 57 NE 5 7 29.89 1012 10 16 N/A
5:52 pm 17:52 Partly Cloudy 84 28.9 65 18.3 53 53 ENE 7 11 29.88 1012 10 16 N/A
6:52 pm 18:52 Mostly Cloudy 81 27.2 65 18.3 58 58 ESE 8 13 29.88 1012 10 16 N/A
7:52 pm 19:52 Mostly Cloudy 80 26.7 65 18.3 60 60 SE 7 11 29.89 1012 10 16 N/A
8:52 pm 20:52 Mostly Cloudy 79 26.1 66 18.9 65 65 N N/A 29.91 1013 10 16 N/A
9:52 pm 21:52 Mostly Cloudy 78 25.6 66 18.9 67 67 SE 5 7 29.93 1013 10 16 N/A
10:52 pm 22:52 Cloudy 78 25.6 66 18.9 67 67 W 3 6 29.92 1013 10 16 N/A
11:52 pm 23:52 Cloudy 78 25.6 68 20 71 71 SSE 3 6 29.92 1013 10 16 N/A

Powered by AerisWeather